Location: Area 52 Observatory
(34.2620°N, 119.2590°W)
Time: 17:36:41
(UTC-07:00)

Hubble Space Telescope - Pass Details

Date: 25 March 2019
Orbit: 537 x 540 km, 28.5° (Epoch: 22 April)

Event Time Altitude Azimuth Distance (km) Brightness Sun altitude
Rises 20:59:36 0° 246° (WSW) 2,673 5.0 -22.5°
Reaches altitude 10° 21:02:00 10° 236° (WSW) 1,784 3.9 -22.9°
Enters shadow 21:04:35 28° 205° (SSW) 1,033 2.2 -23.4°
